This is the latest recevied weather packets stored in our database for station/object NK7E-2. If no packets are shown the sender has not sent any weather packets the latest 10 day(s).
| Time | Temp. | Humidity | Pressure | Rain* | Wind** | Luminosity | Snow |
|---|---|---|---|---|---|---|---|
| 1787705716 | 39.44° C | 18% | 1026.5 hPa | 0 mm | - | - | - |
| 1787705116 | 40° C | 17% | 1026.7 hPa | 0 mm | - | - | - |
| 1787704515 | 40° C | 15% | 1026.8 hPa | 0 mm | - | - | - |
| 1787703918 | 40.56° C | 15% | 1026.8 hPa | 0 mm | - | - | - |
| 1787703317 | 41.11° C | 14% | 1027 hPa | 0 mm | - | - | - |
| 1787702717 | 41.11° C | 14% | 1027 hPa | 0 mm | - | - | - |
| 1787702117 | 41.11° C | 14% | 1027 hPa | 0 mm | - | - | - |
| 1787701517 | 41.11° C | 14% | 1027.1 hPa | 0 mm | - | - | - |
| 1787700917 | 41.11° C | 14% | 1027.1 hPa | 0 mm | - | - | - |
| 1787700317 | 40.56° C | 15% | 1027.1 hPa | 0 mm | - | - | - |
| 1787699717 | 41.67° C | 14% | 1027.4 hPa | 0 mm | - | - | - |
| 1787699117 | 41.11° C | 14% | 1027.2 hPa | 0 mm | - | - | - |
| 1787698517 | 41.67° C | 14% | 1027.4 hPa | 0 mm | - | - | - |
| 1787697917 | 41.11° C | 15% | 1027.3 hPa | 0 mm | - | - | - |
| 1787697317 | 40.56° C | 15% | 1027.3 hPa | 0 mm | - | - | - |
| 1787696717 | 40.56° C | 15% | 1027.5 hPa | 0 mm | - | - | - |
| 1787696117 | 40° C | 16% | 1027.7 hPa | 0 mm | - | - | - |
| 1787695517 | 40.56° C | 16% | 1028.2 hPa | 0 mm | - | - | - |
| 1787694917 | 40.56° C | 16% | 1028.4 hPa | 0 mm | - | - | - |
| 1787694317 | 40.56° C | 15% | 1028.5 hPa | 0 mm | - | - | - |
| 1787693717 | 40.56° C | 15% | 1028.5 hPa | 0 mm | - | - | - |
| 1787693117 | 41.67° C | 15% | 1028.8 hPa | 0 mm | - | - | - |
| 1787692517 | 41.11° C | 15% | 1028.8 hPa | 0 mm | - | - | - |
| 1787691917 | 40° C | 16% | 1028.9 hPa | 0 mm | - | - | - |
| 1787691317 | 40° C | 16% | 1029 hPa | 0 mm | - | - | - |
* Rain latest hour (hover to see other rain measurements)
** Current wind speed in m/s (hover to see current wind gust speed)